This is the latest recevied weather packets stored in our database for station/object F1ZVN-13. If no packets are shown the sender has not sent any weather packets the latest 10 day(s).
| Time | Temp. | Humidity | Pressure | Rain* | Wind** | Luminosity | Snow |
|---|---|---|---|---|---|---|---|
| 1788538877 | 22.78° C | 25% | 1023.8 hPa | 0 mm | 0 m/s | - | - |
| 1788538759 | 22.78° C | 24% | 1023.8 hPa | 0 mm | 0 m/s | - | - |
| 1788538634 | 22.78° C | 24% | 1023.8 hPa | 0 mm | 0 m/s | - | - |
| 1788538515 | 22.78° C | 24% | 1023.8 hPa | 0 mm | 0 m/s | - | - |
| 1788538392 | 22.78° C | 25% | 1023.9 hPa | 0 mm | 0 m/s | - | - |
| 1788538272 | 22.78° C | 25% | 1023.8 hPa | 0 mm | 0 m/s | - | - |
| 1788538149 | 22.78° C | 26% | 1023.6 hPa | 0 mm | 0 m/s | - | - |
| 1788538049 | 22.78° C | 26% | 1023.8 hPa | 0 mm | 0 m/s | - | - |
| 1788537907 | 22.78° C | 26% | 1023.6 hPa | 0 mm | 0 m/s | - | - |
| 1788537790 | 22.78° C | 26% | 1023.9 hPa | 0 mm | 0 m/s | - | - |
| 1788537664 | 22.78° C | 26% | 1023.8 hPa | 0 mm | 0 m/s | - | - |
| 1788537545 | 22.78° C | 25% | 1023.8 hPa | 0 mm | 0 m/s | - | - |
| 1788537425 | 22.78° C | 23% | 1023.6 hPa | 0 mm | 0 m/s | - | - |
| 1788537302 | 23.33° C | 24% | 1023.8 hPa | 0 mm | 0 m/s | - | - |
| 1788537062 | 23.33° C | 25% | 1023.8 hPa | 0 mm | 0 m/s | - | - |
| 1788536946 | 23.33° C | 26% | 1023.8 hPa | 0 mm | 0 m/s | - | - |
| 1788536821 | 23.33° C | 25% | 1023.8 hPa | 0 mm | 0 m/s | - | - |
| 1788536695 | 22.78° C | 26% | 1023.6 hPa | 0 mm | 0 m/s | - | - |
| 1788536579 | 22.78° C | 25% | 1023.8 hPa | 0 mm | 0 m/s | - | - |
| 1788536452 | 22.78° C | 26% | 1023.8 hPa | 0 mm | 0 m/s | - | - |
| 1788536340 | 22.78° C | 23% | 1023.8 hPa | 0 mm | 0 m/s | - | - |
| 1788536090 | 22.78° C | 26% | 1023.5 hPa | 0 mm | 0 m/s | - | - |
| 1788535968 | 22.78° C | 26% | 1023.6 hPa | 0 mm | 0 m/s | - | - |
| 1788535848 | 22.78° C | 24% | 1023.6 hPa | 0 mm | 0 m/s | - | - |
| 1788535605 | 23.33° C | 25% | 1023.8 hPa | 0 mm | 0 m/s | - | - |
* Rain latest hour (hover to see other rain measurements)
** Current wind speed in m/s (hover to see current wind gust speed)